Location: Castillon
(43.0896°N, 0.2156°E)
Time: 20:30:34
(UTC+00:00)

Cosmos 2360 Rocket - Pass Details

Date: 16 June 2021
Orbit: 835 x 843 km, 71.0° (Epoch: 23 July)

Event Time Altitude Azimuth Distance (km) Brightness Sun altitude
Exits shadow 21:40:14 - 207° (SSW) 3,330 5.0 -16.2°
Reaches altitude 10° 21:42:32 10° 209° (SSW) 2,450 4.3 -16.4°
Maximum altitude 21:48:10 77° 295° (WNW) 865 2.3 -16.9°
Drops below altitude 10° 21:53:49 10° 22° (NNE) 2,460 5.1 -17.5°
Sets 21:56:17 0° 24° (NNE) 3,397 5.9 -17.7°
